Location: Boiro
(42.6475°N, 8.8834°W)
Time: 08:48:54
(UTC+01:00)

SR - Pass Details

Date: 08 December 2021
Orbit: 583 x 872 km, 66.7° (Epoch: 16 January)

Event Time Altitude Azimuth Distance (km) Brightness Sun altitude
Rises 09:17:17 0° 323° (NW) 2,838 ? 2.9°
Reaches altitude 10° 09:19:32 10° 317° (NW) 1,953 ? 3.2°
Maximum altitude 09:23:43 46° 245° (WSW) 840 ? 3.9°
Drops below altitude 10° 09:28:10 10° 172° (S) 2,067 ? 4.5°
Sets 09:30:36 0° 166° (SSE) 3,023 ? 4.9°
